Location: Lafig�re
(44.4503°N, 4.0357°E)
Time: 16:10:45
(UTC+00:00)

deb Explorer IX - Pass Details

Date: 29 January 2021
Orbit: 537 x 1102 km, 38.8° (Epoch: 04 March)

Event Time Altitude Azimuth Distance (km) Brightness Sun altitude
Rises 16:05:51 0° 244° (WSW) 3,884 ? 6.0°
Reaches altitude 10° 16:08:47 10° 239° (WSW) 2,894 ? 5.5°
Maximum altitude 16:15:30 47° 169° (SSE) 1,301 ? 4.5°
Drops below altitude 10° 16:21:29 10° 97° (E) 2,590 ? 3.6°
Sets 16:23:59 0° 92° (E) 3,445 ? 3.2°
